QLK6PT YSSY-YMML

Flight info

Callsign QLK6PT
Flight time 1h 6m
Altitude 34000
Route WOL H65 LEECE Q29 ML
Aircraft A320/M-SDE3FGHIRWY/LB1

Departure

Time 2026-04-30 11:49
Airport Sydney Kingsford Smith International Airport (YSSY)

Arrival

Time 2026-04-30 12:56
Airport Melbourne Airport (YMML)
Time Latitude Longitude Altitude Speed Heading
2026-04-30 11:21 -33.93463 151.17685 30 ft 0 kts 100°
2026-04-30 11:39 -33.93462 151.17684 28 ft 1 kts 100°
2026-04-30 11:39 -33.93459 151.17666 30 ft 3 kts 102°
2026-04-30 11:40 -33.93455 151.17642 29 ft 3 kts 107°
2026-04-30 11:40 -33.93448 151.17619 30 ft 3 kts 118°
2026-04-30 11:40 -33.93437 151.17601 30 ft 3 kts 152°
2026-04-30 11:40 -33.93427 151.17597 30 ft 1 kts 202°
2026-04-30 11:41 -33.93426 151.17598 30 ft 0 kts 203°
2026-04-30 11:44 -33.93446 151.17587 29 ft 8 kts 201°
2026-04-30 11:44 -33.93528 151.17596 27 ft 15 kts 168°
2026-04-30 11:44 -33.93638 151.17631 29 ft 17 kts 154°
2026-04-30 11:45 -33.93758 151.17693 21 ft 23 kts 168°
2026-04-30 11:45 -33.93901 151.17779 21 ft 23 kts 160°
2026-04-30 11:45 -33.94051 151.17818 23 ft 24 kts 169°
2026-04-30 11:45 -33.94218 151.17863 24 ft 25 kts 168°
2026-04-30 11:46 -33.94397 151.17907 24 ft 27 kts 168°
2026-04-30 11:46 -33.94569 151.17894 27 ft 18 kts 167°
2026-04-30 11:46 -33.94688 151.17927 23 ft 19 kts 168°
2026-04-30 11:46 -33.94835 151.17963 20 ft 23 kts 168°
2026-04-30 11:47 -33.94998 151.18006 25 ft 24 kts 167°
2026-04-30 11:47 -33.95141 151.18043 29 ft 14 kts 169°
2026-04-30 11:47 -33.95202 151.17972 25 ft 16 kts 260°
2026-04-30 11:47 -33.95229 151.17832 23 ft 19 kts 255°
2026-04-30 11:48 -33.95213 151.17751 22 ft 6 kts 356°
2026-04-30 11:48 -33.95201 151.17747 22 ft 1 kts 345°
2026-04-30 11:48 -33.95070 151.17717 19 ft 53 kts 349°
2026-04-30 11:48 -33.94490 151.17563 24 ft 115 kts 348°
2026-04-30 11:49 -33.93550 151.17321 86 ft 154 kts 348°
2026-04-30 11:49 -33.92525 151.16929 656 ft 158 kts 336°
2026-04-30 11:49 -33.91579 151.16230 1240 ft 164 kts 325°
2026-04-30 11:49 -33.90759 151.15256 1829 ft 169 kts 312°
2026-04-30 11:50 -33.90098 151.13970 2082 ft 195 kts 298°
2026-04-30 11:50 -33.89479 151.12394 2277 ft 223 kts 298°
2026-04-30 11:50 -33.88753 151.10625 2615 ft 249 kts 299°
2026-04-30 11:50 -33.87938 151.08656 2982 ft 275 kts 298°
2026-04-30 11:51 -33.87086 151.06577 4033 ft 271 kts 298°
2026-04-30 11:51 -33.86291 151.04521 5002 ft 274 kts 290°
2026-04-30 11:51 -33.86059 151.02240 5854 ft 280 kts 264°
2026-04-30 11:51 -33.86659 151.00045 6685 ft 284 kts 237°
2026-04-30 11:52 -33.88042 150.98325 7478 ft 286 kts 211°
2026-04-30 11:52 -33.89892 150.97467 8250 ft 288 kts 191°
2026-04-30 11:52 -33.91861 150.96929 9031 ft 292 kts 192°
2026-04-30 11:52 -33.93859 150.96384 9786 ft 297 kts 192°
2026-04-30 11:53 -33.95897 150.95824 10469 ft 305 kts 192°
2026-04-30 11:53 -33.98016 150.95241 10842 ft 323 kts 192°
2026-04-30 11:53 -34.00277 150.94618 11123 ft 341 kts 192°
2026-04-30 11:53 -34.02610 150.93969 11720 ft 347 kts 193°
2026-04-30 11:54 -34.04968 150.93313 12406 ft 350 kts 193°
2026-04-30 11:54 -34.07238 150.92681 13084 ft 352 kts 193°
2026-04-30 11:54 -34.09631 150.92014 13787 ft 355 kts 193°
2026-04-30 11:54 -34.12047 150.91341 14447 ft 358 kts 193°
2026-04-30 11:55 -34.14483 150.90662 15055 ft 361 kts 193°
2026-04-30 11:55 -34.16938 150.89978 15655 ft 363 kts 193°
2026-04-30 11:55 -34.19397 150.89293 16234 ft 367 kts 193°
2026-04-30 11:55 -34.21892 150.88599 16816 ft 369 kts 193°
2026-04-30 11:56 -34.24375 150.87905 17402 ft 372 kts 193°
2026-04-30 11:56 -34.26909 150.87196 17991 ft 375 kts 193°
2026-04-30 11:56 -34.29461 150.86481 18597 ft 378 kts 193°
2026-04-30 11:56 -34.32037 150.85762 19127 ft 381 kts 193°
2026-04-30 11:57 -34.34631 150.85037 19656 ft 384 kts 193°
2026-04-30 11:57 -34.37248 150.84304 20200 ft 387 kts 193°
2026-04-30 11:57 -34.39884 150.83568 20735 ft 390 kts 193°
2026-04-30 11:57 -34.42542 150.82824 21269 ft 393 kts 193°
2026-04-30 11:58 -34.45211 150.82079 21790 ft 396 kts 193°
2026-04-30 11:58 -34.47906 150.81322 22292 ft 399 kts 193°
2026-04-30 11:58 -34.50624 150.80559 22785 ft 402 kts 193°
2026-04-30 11:58 -34.53275 150.79451 23276 ft 406 kts 205°
2026-04-30 11:59 -34.55663 150.77771 23735 ft 409 kts 216°
2026-04-30 11:59 -34.57816 150.75496 24184 ft 412 kts 227°
2026-04-30 11:59 -34.59612 150.72775 24606 ft 414 kts 234°
2026-04-30 11:59 -34.61313 150.69949 25039 ft 416 kts 233°
2026-04-30 12:00 -34.63029 150.67103 25458 ft 418 kts 233°
2026-04-30 12:00 -34.64750 150.64250 25858 ft 420 kts 233°
2026-04-30 12:00 -34.66478 150.61385 26273 ft 421 kts 233°
2026-04-30 12:00 -34.68212 150.58507 26672 ft 423 kts 233°
2026-04-30 12:01 -34.69953 150.55614 27070 ft 425 kts 233°
2026-04-30 12:01 -34.71696 150.52711 27458 ft 426 kts 233°
2026-04-30 12:01 -34.73448 150.49788 27845 ft 428 kts 233°
2026-04-30 12:01 -34.75206 150.46853 28202 ft 430 kts 233°
2026-04-30 12:02 -34.76970 150.43908 28593 ft 432 kts 233°
2026-04-30 12:02 -34.78742 150.40949 28973 ft 433 kts 233°
2026-04-30 12:02 -34.80516 150.37979 29338 ft 435 kts 233°
2026-04-30 12:02 -34.82300 150.34989 29706 ft 437 kts 233°
2026-04-30 12:03 -34.84045 150.32063 30052 ft 439 kts 233°
2026-04-30 12:03 -34.87626 150.26057 30714 ft 443 kts 233°
2026-04-30 12:03 -34.89436 150.23014 31005 ft 445 kts 233°
2026-04-30 12:04 -34.91260 150.19950 31293 ft 447 kts 233°
2026-04-30 12:04 -34.93081 150.16887 31682 ft 446 kts 233°
2026-04-30 12:04 -34.94853 150.13901 32090 ft 445 kts 233°
2026-04-30 12:04 -34.96661 150.10849 32504 ft 443 kts 233°
2026-04-30 12:05 -34.98465 150.07802 32910 ft 443 kts 234°
2026-04-30 12:05 -35.00263 150.04762 33323 ft 442 kts 234°
2026-04-30 12:05 -35.02057 150.01731 33735 ft 441 kts 233°
2026-04-30 12:05 -35.03849 149.98703 34150 ft 440 kts 233°
2026-04-30 12:06 -35.05640 149.95675 34428 ft 440 kts 233°
2026-04-30 12:06 -35.09198 149.89652 34468 ft 435 kts 233°
2026-04-30 12:07 -35.12725 149.83661 34467 ft 434 kts 234°
2026-04-30 12:07 -35.16235 149.77678 34472 ft 433 kts 234°
2026-04-30 12:08 -35.19747 149.71687 34472 ft 433 kts 234°
2026-04-30 12:08 -35.23267 149.65696 34480 ft 434 kts 234°
2026-04-30 12:09 -35.26689 149.59855 34489 ft 434 kts 235°
2026-04-30 12:09 -35.30197 149.53842 34485 ft 434 kts 235°
2026-04-30 12:10 -35.33701 149.47820 34498 ft 434 kts 235°
2026-04-30 12:10 -35.37205 149.41791 34488 ft 434 kts 234°
2026-04-30 12:11 -35.40709 149.35765 34485 ft 434 kts 235°
2026-04-30 12:11 -35.44207 149.29730 34484 ft 434 kts 235°
2026-04-30 12:12 -35.47704 149.23690 34487 ft 435 kts 235°
2026-04-30 12:12 -35.51205 149.17637 34495 ft 435 kts 235°
2026-04-30 12:13 -35.54700 149.11582 34492 ft 435 kts 235°
2026-04-30 12:13 -35.58189 149.05518 34517 ft 435 kts 235°
2026-04-30 12:14 -35.61677 148.99447 34509 ft 435 kts 236°
2026-04-30 12:14 -35.65165 148.93368 34517 ft 435 kts 236°
2026-04-30 12:15 -35.68651 148.87283 34519 ft 435 kts 236°
2026-04-30 12:15 -35.72130 148.81192 34520 ft 435 kts 236°
2026-04-30 12:16 -35.75619 148.75093 34521 ft 435 kts 236°
2026-04-30 12:16 -35.79098 148.68993 34520 ft 435 kts 236°
2026-04-30 12:17 -35.84305 148.59822 34518 ft 435 kts 236°
2026-04-30 12:17 -35.87772 148.53705 34523 ft 435 kts 237°
2026-04-30 12:18 -35.91218 148.47623 34514 ft 435 kts 237°
2026-04-30 12:18 -35.94674 148.41491 34513 ft 435 kts 237°
2026-04-30 12:19 -35.98123 148.35347 34494 ft 436 kts 237°
2026-04-30 12:19 -36.01572 148.29196 34498 ft 436 kts 237°
2026-04-30 12:20 -36.05017 148.23040 34483 ft 435 kts 238°
2026-04-30 12:20 -36.07879 148.17919 34485 ft 435 kts 238°
2026-04-30 12:21 -36.11321 148.11763 34473 ft 435 kts 238°
2026-04-30 12:21 -36.14765 148.05603 34472 ft 435 kts 238°
2026-04-30 12:22 -36.18209 147.99440 34467 ft 436 kts 238°
2026-04-30 12:22 -36.21647 147.93263 34468 ft 436 kts 238°
2026-04-30 12:23 -36.25082 147.87083 34465 ft 435 kts 238°
2026-04-30 12:23 -36.28522 147.80904 34472 ft 435 kts 238°
2026-04-30 12:24 -36.31957 147.74721 34466 ft 435 kts 238°
2026-04-30 12:24 -36.35379 147.68528 34467 ft 435 kts 238°
2026-04-30 12:25 -36.38795 147.62326 34470 ft 435 kts 239°
2026-04-30 12:25 -36.42184 147.56171 34472 ft 434 kts 239°
2026-04-30 12:26 -36.45586 147.49972 34471 ft 434 kts 239°
2026-04-30 12:26 -36.48979 147.43777 34467 ft 434 kts 239°
2026-04-30 12:27 -36.52375 147.37582 34460 ft 434 kts 239°
2026-04-30 12:27 -36.55769 147.31373 34466 ft 434 kts 239°
2026-04-30 12:28 -36.59162 147.25151 34456 ft 435 kts 239°
2026-04-30 12:28 -36.62553 147.18917 34451 ft 435 kts 239°
2026-04-30 12:29 -36.65938 147.12677 34451 ft 435 kts 239°
2026-04-30 12:29 -36.69321 147.06437 34451 ft 435 kts 239°
2026-04-30 12:30 -36.72718 147.00180 34448 ft 436 kts 239°
2026-04-30 12:30 -36.76107 146.93912 34448 ft 436 kts 240°
2026-04-30 12:31 -36.79498 146.87629 34397 ft 435 kts 240°
2026-04-30 12:31 -36.81172 146.84522 34136 ft 427 kts 240°
2026-04-30 12:31 -36.82815 146.81503 33502 ft 428 kts 239°
2026-04-30 12:32 -36.84509 146.78457 33057 ft 425 kts 239°
2026-04-30 12:32 -36.86201 146.75456 32571 ft 422 kts 239°
2026-04-30 12:32 -36.87888 146.72476 32107 ft 419 kts 238°
2026-04-30 12:32 -36.89553 146.69527 31658 ft 416 kts 238°
2026-04-30 12:33 -36.91210 146.66576 31213 ft 413 kts 239°
2026-04-30 12:33 -36.92851 146.63640 30773 ft 411 kts 239°
2026-04-30 12:33 -36.94479 146.60715 30300 ft 409 kts 239°
2026-04-30 12:33 -36.96091 146.57811 29877 ft 405 kts 239°
2026-04-30 12:34 -36.97690 146.54931 29455 ft 401 kts 239°
2026-04-30 12:34 -36.99275 146.52080 29046 ft 397 kts 239°
2026-04-30 12:34 -37.00846 146.49251 28650 ft 394 kts 239°
2026-04-30 12:34 -37.02407 146.46441 28248 ft 392 kts 239°
2026-04-30 12:35 -37.03959 146.43648 27855 ft 390 kts 239°
2026-04-30 12:35 -37.05504 146.40861 27454 ft 389 kts 239°
2026-04-30 12:35 -37.07041 146.38081 27054 ft 388 kts 239°
2026-04-30 12:35 -37.08574 146.35300 26645 ft 387 kts 239°
2026-04-30 12:36 -37.10098 146.32533 26239 ft 386 kts 239°
2026-04-30 12:36 -37.11618 146.29781 25800 ft 385 kts 239°
2026-04-30 12:36 -37.13143 146.27023 25382 ft 385 kts 239°
2026-04-30 12:36 -37.14667 146.24265 24942 ft 384 kts 239°
2026-04-30 12:37 -37.16186 146.21512 24515 ft 384 kts 239°
2026-04-30 12:37 -37.17704 146.18749 24057 ft 385 kts 239°
2026-04-30 12:37 -37.19216 146.15989 23589 ft 383 kts 239°
2026-04-30 12:37 -37.20720 146.13249 23121 ft 381 kts 239°
2026-04-30 12:38 -37.22214 146.10526 22702 ft 378 kts 239°
2026-04-30 12:38 -37.23684 146.07857 22228 ft 376 kts 239°
2026-04-30 12:38 -37.25162 146.05169 21797 ft 373 kts 239°
2026-04-30 12:38 -37.26624 146.02501 21356 ft 370 kts 239°
2026-04-30 12:39 -37.28070 145.99849 20914 ft 368 kts 240°
2026-04-30 12:39 -37.29506 145.97211 20475 ft 365 kts 240°
2026-04-30 12:39 -37.30935 145.94588 20046 ft 363 kts 240°
2026-04-30 12:39 -37.32356 145.91981 19616 ft 360 kts 240°
2026-04-30 12:40 -37.33772 145.89389 19179 ft 359 kts 240°
2026-04-30 12:40 -37.35178 145.86811 18745 ft 357 kts 240°
2026-04-30 12:40 -37.36578 145.84243 18345 ft 353 kts 240°
2026-04-30 12:40 -37.37961 145.81703 17855 ft 351 kts 240°
2026-04-30 12:41 -37.39326 145.79193 17437 ft 348 kts 240°
2026-04-30 12:41 -37.40688 145.76687 17032 ft 345 kts 239°
2026-04-30 12:41 -37.42030 145.74217 16615 ft 342 kts 239°
2026-04-30 12:41 -37.43369 145.71749 16200 ft 340 kts 239°
2026-04-30 12:42 -37.44693 145.69305 15786 ft 337 kts 239°
2026-04-30 12:42 -37.45990 145.66909 15394 ft 334 kts 239°
2026-04-30 12:42 -37.47293 145.64503 14994 ft 332 kts 239°
2026-04-30 12:42 -37.48586 145.62112 14602 ft 329 kts 239°
2026-04-30 12:43 -37.49867 145.59744 14220 ft 327 kts 239°
2026-04-30 12:43 -37.51146 145.57380 13783 ft 326 kts 239°
2026-04-30 12:43 -37.52414 145.55033 13392 ft 323 kts 239°
2026-04-30 12:43 -37.53668 145.52703 13004 ft 320 kts 239°
2026-04-30 12:44 -37.54912 145.50390 12620 ft 318 kts 239°
2026-04-30 12:44 -37.56152 145.48089 12236 ft 316 kts 239°
2026-04-30 12:44 -37.57324 145.45908 11859 ft 314 kts 239°
2026-04-30 12:44 -37.58553 145.43619 11285 ft 319 kts 239°
2026-04-30 12:45 -37.59794 145.41307 10941 ft 315 kts 239°
2026-04-30 12:45 -37.60919 145.39216 10514 ft 311 kts 239°
2026-04-30 12:45 -37.62122 145.36985 10037 ft 300 kts 239°
2026-04-30 12:45 -37.63269 145.34862 9617 ft 288 kts 239°
2026-04-30 12:46 -37.64360 145.32833 9213 ft 279 kts 239°
2026-04-30 12:46 -37.65444 145.30808 8875 ft 278 kts 239°
2026-04-30 12:46 -37.66523 145.28784 8523 ft 278 kts 240°
2026-04-30 12:46 -37.67601 145.26763 8181 ft 278 kts 240°
2026-04-30 12:47 -37.68682 145.24734 7840 ft 278 kts 240°
2026-04-30 12:47 -37.69758 145.22713 7493 ft 278 kts 240°
2026-04-30 12:47 -37.70787 145.20782 7162 ft 277 kts 240°
2026-04-30 12:47 -37.71898 145.18702 6809 ft 278 kts 240°
2026-04-30 12:48 -37.72945 145.16745 6458 ft 277 kts 240°
2026-04-30 12:48 -37.74038 145.14704 6104 ft 277 kts 241°
2026-04-30 12:48 -37.75114 145.12688 5764 ft 277 kts 241°
2026-04-30 12:48 -37.76189 145.10670 5412 ft 277 kts 241°
2026-04-30 12:49 -37.77251 145.08673 5069 ft 277 kts 241°
2026-04-30 12:49 -37.78340 145.06623 4708 ft 278 kts 242°
2026-04-30 12:49 -37.79416 145.04597 4359 ft 278 kts 241°
2026-04-30 12:49 -37.80495 145.02564 4016 ft 279 kts 242°
2026-04-30 12:50 -37.81375 145.00468 3787 ft 268 kts 256°
2026-04-30 12:50 -37.81832 144.98255 3536 ft 253 kts 263°
2026-04-30 12:50 -37.82203 144.96150 3341 ft 238 kts 264°
2026-04-30 12:50 -37.82557 144.94118 3208 ft 236 kts 265°
2026-04-30 12:51 -37.82845 144.92097 3095 ft 228 kts 267°
2026-04-30 12:51 -37.83085 144.90164 2981 ft 217 kts 269°
2026-04-30 12:51 -37.83131 144.88327 2886 ft 201 kts 294°
2026-04-30 12:51 -37.82382 144.86955 2897 ft 188 kts 330°
2026-04-30 12:52 -37.81172 144.86464 2846 ft 186 kts 354°
2026-04-30 12:52 -37.79887 144.86254 2560 ft 185 kts 353°
2026-04-30 12:52 -37.78646 144.86018 2293 ft 174 kts 353°
2026-04-30 12:52 -37.77494 144.85791 2093 ft 161 kts 353°
2026-04-30 12:53 -37.76421 144.85581 1805 ft 152 kts 353°
2026-04-30 12:53 -37.75404 144.85382 1593 ft 143 kts 353°
2026-04-30 12:53 -37.74447 144.85201 1321 ft 137 kts 353°
2026-04-30 12:53 -37.73516 144.85001 1124 ft 136 kts 352°
2026-04-30 12:54 -37.72580 144.84817 949 ft 135 kts 354°
2026-04-30 12:54 -37.71643 144.84663 881 ft 137 kts 353°
2026-04-30 12:54 -37.70694 144.84483 812 ft 138 kts 352°
2026-04-30 12:54 -37.69743 144.84319 646 ft 137 kts 353°
2026-04-30 12:55 -37.68808 144.84134 420 ft 136 kts 352°
2026-04-30 12:55 -37.67904 144.83975 352 ft 115 kts 352°
2026-04-30 12:55 -37.67283 144.83859 374 ft 70 kts 351°
2026-04-30 12:55 -37.66853 144.83780 386 ft 57 kts 352°
2026-04-30 12:56 -37.66552 144.83746 392 ft 29 kts 29°
2026-04-30 12:56 -37.66516 144.83970 384 ft 26 kts 93°
2026-04-30 12:56 -37.66525 144.84196 372 ft 14 kts 94°
2026-04-30 12:56 -37.66523 144.84356 361 ft 23 kts 82°
2026-04-30 12:57 -37.66492 144.84593 344 ft 32 kts 80°
2026-04-30 12:57 -37.66462 144.84865 333 ft 28 kts 83°
2026-04-30 12:57 -37.66497 144.85044 332 ft 20 kts 159°
2026-04-30 12:57 -37.66613 144.85066 335 ft 9 kts 172°
2026-04-30 12:58 -37.66679 144.85078 336 ft 10 kts 172°
2026-04-30 12:58 -37.66738 144.85095 338 ft 6 kts 135°
2026-04-30 12:58 -37.66736 144.85133 339 ft 2 kts 82°
2026-04-30 12:58 -37.66736 144.85156 337 ft 0 kts 91°